Regional Weather Roundup
Issued by NWS

Home | Current Version | Previous Version | Graphics & Text | Print | Product List | Glossary On
Versions: 1 2 3 4 5 6 7 8 9 10 11 12 13 14 15 16 17 18 19 20 21 22 23 24 25 26 27 28 29 30 31 32 33 34 35 36 37 38 39 40 41 42 43 44 45 46 47 48 49 50
198
ASUS43 KMKX 250200
RWRWI

WISCONSIN REGIONAL WEATHER ROUNDUP
NATIONAL WEATHER SERVICE MILWAUKEE/SULLIVAN WI
900 PM CDT SUN JUL 24 2016

NOTE: "FAIR" INDICATES FEW OR NO CLOUDS BELOW 12,000 FEET WITH NO
SIGNIFICANT WEATHER AND/OR OBSTRUCTIONS TO VISIBILITY.

WIZ001-002-006>008-014>016-023>028-250300-
NORTHWEST WISCONSIN

CITY           SKY/WX    TMP DP  RH WIND       PRES   REMARKS
SUPERIOR ARPT  PTCLDY    74  63  69 W5        29.85S
ASHLAND        CLEAR     72  62  71 SW7       29.86S
HAYWARD        CLEAR     73  61  65 W3        29.90S
SIREN          CLEAR     73  61  64 W5        29.91S
CUMBERLAND     CLEAR     70  61  73 W5        29.93R
RICE LAKE      CLEAR     72  62  70 W3        29.92S
CHETEK         CLEAR     74  64  72 W3        29.91S
LADYSMITH      PTCLDY    73  62  69 W6        29.92S
EAU CLAIRE     NOT AVBL
MENOMONIE      CLEAR     77  63  61 W8        29.90S
NEW RICHMOND   CLEAR     74  60  61 W7        29.93S
OSCEOLA        CLEAR     74  62  66 W6        29.95S
$$

WIZ003>005-009-010-017-018-250300-
NORTH CENTRAL WISCONSIN

CITY           SKY/WX    TMP DP  RH WIND       PRES   REMARKS
MANITOWISH WTR MOCLDY    71  64  78 W5        29.89S
ARBOR VITAE    PTCLDY    74  62  67 NW7       29.89S
WOODRUFF       PTCLDY    74  62  67 NW7       29.89S
RHINELANDER    CLEAR     73  61  65 W9        29.89S
EAGLE RIVER    PTCLDY    72  59  64 W3        29.88S
LAND O LAKES   PTCLDY    73  61  66 NW5       29.89S
PHILLIPS       CLEAR     72  64  75 CALM      29.89F
TOMAHAWK       PTCLDY    70  63  78 W6        29.90S
MEDFORD        CLOUDY    71  64  78 CALM      29.90S
MERRILL        CLOUDY    74  64  71 NW7       29.89R
$$

WIZ029-030-035-036-043>047-250300-
CENTRAL WISCONSIN

CITY           SKY/WX    TMP DP  RH WIND       PRES   REMARKS
WAUSAU         PTCLDY    76  62  62 NW10      29.87R
MOSINEE        NOT AVBL
MARSHFIELD     MOCLDY    73  63  70 NW7       29.89S
STEVENS POINT  CLOUDY    75  63  65 NW5       29.88S
WAUPACA        CLEAR     80  66  61 W3        29.86R HX  82
WAUTOMA        PTCLDY    77  68  73 W3        29.87R
WISC RAPIDS    MOCLDY    74  62  66 NW6       29.89R
CAMP DOUGLAS   NOT AVBL
$$

WIZ011>013-019>022-031-037>040-048>050-250300-
NORTHEAST WISCONSIN

CITY           SKY/WX    TMP DP  RH WIND       PRES   REMARKS
ANTIGO         CLEAR     73  64  73 W10G17    29.88S
SHAWANO        CLEAR     79  66  64 W3        29.84S HX  81
OCONTO         PTCLDY    76  73  90 W3        29.81R
STURGEON BAY   PTCLDY    79  68  69 W7        29.83R HX  81
GREEN BAY      CLEAR     74  69  85 W5        29.84R
MANITOWOC      NOT AVBL
APPLETON       PTCLDY    75  64  69 W6        29.84S
CLINTONVILLE   CLEAR     77  64  65 W5        29.84S
OSHKOSH        CLEAR     78  67  68 CALM      29.86R HX  80
$$

WIZ032>034-041-042-053>061-250300-
SOUTHWEST WISCONSIN

CITY           SKY/WX    TMP DP  RH WIND       PRES   REMARKS
LA CROSSE      CLEAR     77  65  66 W7        29.90R
SPARTA         PTCLDY    76  65  70 CALM      29.90R
VIROQUA        CLEAR     71  66  82 W6        29.94R
BOSCOBEL       CLOUDY    77  69  76 CALM      29.90R
PRAIRIE DU CHI MOCLDY    76  65  69 CALM      29.91R
PLATTEVILLE    CLOUDY    76  70  82 CALM      29.92F
$$

WIZ056-057-062-063-064-067-068-250300-
SOUTH CENTRAL WISCONSIN

CITY           SKY/WX    TMP DP  RH WIND       PRES   REMARKS
REEDSBURG      CLOUDY    76  67  73 W5        29.89S
BARABOO/DELLS  CLOUDY    76  65  69 CALM      29.89S
LONE ROCK      NOT AVBL
MINERAL POINT  CLOUDY    77  68  73 CALM      29.92F
MADISON        CLOUDY    78  67  68 W3        29.89S HX  80
MIDDLETON      CLOUDY    76  68  75 W5        29.90F
WATERTOWN      CLEAR     80  67  65 W8        29.88S HX  82
MONROE         CLEAR     77  68  73 NW7       29.91F
JANESVILLE     MOCLDY    81  68  65 NW9       29.88S THUNDER HX  83
$$

WIZ051-052-058>065-066-070>072-250300-
SOUTHEAST WISCONSIN

CITY           SKY/WX    TMP DP  RH WIND       PRES   REMARKS
MILWAUKEE      CLOUDY    88  75  65 NW8       29.85R HX  97
WAUKESHA       PTCLDY    81  70  69 W12       29.88R HX  84
MILWAUKEE/TIMM PTCLDY    84  70  61 NW12G17   29.86R HX  88
RACINE         CLOUDY    83  79  88 W5        29.87R HX  94
BURLINGTON     CLOUDY    84  76  77 W5        29.87R HX  93
KENOSHA        CLOUDY    84  78  82 W7        29.88R THUNDER HX  95
FOND DU LAC    CLEAR     78  69  73 W3        29.87R HX  80
SHEBOYGAN      CLEAR     80  68  66 NW8       29.85R HX  83
WEST BEND      CLEAR     81  66  61 W9        29.87R HX  83
JUNEAU         CLEAR     79  68  69 W3        29.89S HX  81
$$

LSZ147-162-250300-
LAKE SUPERIOR

STATION/POSITION TIME  TEMP    WIND        PRES    WAVE
                       AIR SEA DIR/SP/G            HT/PER
                 (UTC) (F)     (DEG/KT/KT) (MB)    (FT/S)
W MID LAKE BUOY  0050   65 58  240/ 12/ 12 1008.2R   2/ 5
DEVILS ISLAND    0100   69     240/ 17/ 18 1009.4R
SAXON HARBOR     0100   78     220/  3/  6 1010.5
$$

LMZ867-665-643>646-250300-
LAKE MICHIGAN

STATION/POSITION TIME  TEMP    WIND        PRES    WAVE
                       AIR SEA DIR/SP/G            HT/PER
                 (UTC) (F)     (DEG/KT/KT) (MB)    (FT/S)
CHAMBERS ISLAND  0100   80     230/  4/ 10 1008.5R
S GREEN BAY BUOY 0130   78 74  260/ 10/ 12   N/A
N MID LAKE BUOY  0050   69 68  210/ 12/ 14 1007.5R   4/ 7
NORTHPORT PIER   0100   76     160/  2/  4 1008.1S
KEWAUNEE LAKESHO 0100   82     280/  7/ 10   N/A
SHEBOYGAN LAKESH 0100   85     290/  8/ 10 1009.9R
PORT WASHINGTON  0100   87     290/  3/  8 1010.8R
MILWAUKEE LAKESH 0110   87     290/  9/ 12   N/A
S MID LAKE BUOY  0050   76 72  180/ 10/ 12 1009.4R   2/ 4
KENOSHA   LAKESH 0100   90     250/ 11/ 16 1009.8S
$$

TC  - TEMPERATURE IN CELSIUS
VSB - VISIBILITY IN STATUTE MILES
WCI - WIND CHILL INDEX
HX  - HEAT INDEX





USA.gov is the U.S. government's official web portal to all federal, state and local government web resources and services.